Year,Month,Day,Hour,Minute,Value (Times are PST for temperature in C)
2006,11,14,00,00,1.90
2006,11,14,00,01,1.90
2006,11,14,00,02,1.90
2006,11,14,00,03,1.90
2006,11,14,00,04,1.90
2006,11,14,00,05,1.90
2006,11,14,00,06,2.00
2006,11,14,00,07,2.00
2006,11,14,00,08,2.00
2006,11,14,00,09,2.00
2006,11,14,00,10,2.00
2006,11,14,00,11,2.00
2006,11,14,00,12,2.00
2006,11,14,00,13,2.00
2006,11,14,00,14,2.00
2006,11,14,00,15,2.00
2006,11,14,00,16,2.00
2006,11,14,00,17,2.00
2006,11,14,00,18,2.00
2006,11,14,00,19,2.10
2006,11,14,00,20,2.10
2006,11,14,00,21,2.10
2006,11,14,00,22,2.10
2006,11,14,00,23,2.10
2006,11,14,00,24,2.00
2006,11,14,00,25,2.00
2006,11,14,00,26,2.00
2006,11,14,00,27,2.00
2006,11,14,00,28,2.00
2006,11,14,00,29,2.00
2006,11,14,00,30,2.00
2006,11,14,00,31,2.00
2006,11,14,00,32,2.00
2006,11,14,00,33,1.90
2006,11,14,00,34,1.90
2006,11,14,00,35,1.90
2006,11,14,00,36,1.90
2006,11,14,00,37,1.90
2006,11,14,00,38,1.90
2006,11,14,00,39,1.90
2006,11,14,00,40,2.00
2006,11,14,00,41,2.00
2006,11,14,00,42,2.00
2006,11,14,00,43,2.00
2006,11,14,00,44,2.00
2006,11,14,00,45,2.10
2006,11,14,00,46,2.10
2006,11,14,00,47,2.10
2006,11,14,00,48,2.10
2006,11,14,00,49,2.10
2006,11,14,00,50,2.10
2006,11,14,00,51,2.10
2006,11,14,00,52,2.10
2006,11,14,00,53,2.00
2006,11,14,00,54,2.00
2006,11,14,00,55,2.00
2006,11,14,00,56,2.00
2006,11,14,00,57,2.00
2006,11,14,00,58,1.90
2006,11,14,00,59,1.90
2006,11,14,01,00,1.90
2006,11,14,01,01,1.90
2006,11,14,01,02,1.90
2006,11,14,01,03,1.90
2006,11,14,01,04,1.90
2006,11,14,01,05,1.90
2006,11,14,01,06,1.90
2006,11,14,01,07,1.90
2006,11,14,01,08,1.90
2006,11,14,01,09,1.90
2006,11,14,01,10,1.90
2006,11,14,01,11,2.00
2006,11,14,01,12,2.00
2006,11,14,01,13,2.00
2006,11,14,01,14,2.00
2006,11,14,01,15,2.00
2006,11,14,01,16,2.00
2006,11,14,01,17,2.00
2006,11,14,01,18,2.00
2006,11,14,01,19,2.00
2006,11,14,01,20,2.00
2006,11,14,01,21,2.00
2006,11,14,01,22,2.00
2006,11,14,01,23,2.00
2006,11,14,01,24,2.00
2006,11,14,01,25,2.10
2006,11,14,01,26,2.10
2006,11,14,01,27,2.00
2006,11,14,01,28,2.00
2006,11,14,01,29,2.00
2006,11,14,01,30,1.90
2006,11,14,01,31,1.90
2006,11,14,01,32,1.90
2006,11,14,01,33,1.80
2006,11,14,01,34,1.80
2006,11,14,01,35,1.80
2006,11,14,01,36,1.80
2006,11,14,01,37,1.80
2006,11,14,01,38,1.80
2006,11,14,01,39,1.80
2006,11,14,01,40,1.80
2006,11,14,01,41,1.80
2006,11,14,01,42,1.80
2006,11,14,01,43,1.70
2006,11,14,01,44,1.70
2006,11,14,01,45,1.70
2006,11,14,01,46,1.70
2006,11,14,01,47,1.70
2006,11,14,01,48,1.70
2006,11,14,01,49,1.70
2006,11,14,01,50,1.70
2006,11,14,01,51,1.70
2006,11,14,01,52,1.70
2006,11,14,01,53,1.60
2006,11,14,01,54,1.60
2006,11,14,01,55,1.60
2006,11,14,01,56,1.60
2006,11,14,01,57,1.60
2006,11,14,01,58,1.60
2006,11,14,01,59,1.60
2006,11,14,02,00,1.60
2006,11,14,02,01,1.60
2006,11,14,02,02,1.60
2006,11,14,02,03,1.60
2006,11,14,02,04,1.60
2006,11,14,02,05,1.60
2006,11,14,02,06,1.60
2006,11,14,02,07,1.60
2006,11,14,02,08,1.60
2006,11,14,02,09,1.60
2006,11,14,02,10,1.60
2006,11,14,02,11,1.70
2006,11,14,02,12,1.70
2006,11,14,02,13,1.70
2006,11,14,02,14,1.80
2006,11,14,02,15,1.80
2006,11,14,02,16,1.80
2006,11,14,02,17,1.80
2006,11,14,02,18,1.90
2006,11,14,02,19,1.90
2006,11,14,02,20,1.90
2006,11,14,02,21,2.00
2006,11,14,02,22,2.00
2006,11,14,02,23,2.00
2006,11,14,02,24,2.00
2006,11,14,02,25,1.90
2006,11,14,02,26,1.90
2006,11,14,02,27,1.90
2006,11,14,02,28,1.90
2006,11,14,02,29,1.90
2006,11,14,02,30,1.80
2006,11,14,02,31,1.80
2006,11,14,02,32,1.80
2006,11,14,02,33,1.80
2006,11,14,02,34,1.80
2006,11,14,02,35,1.80
2006,11,14,02,36,1.80
2006,11,14,02,37,1.80
2006,11,14,02,38,1.80
2006,11,14,02,39,1.80
2006,11,14,02,40,1.70
2006,11,14,02,41,1.70
2006,11,14,02,42,1.70
2006,11,14,02,43,1.70
2006,11,14,02,44,1.70
2006,11,14,02,45,1.60
2006,11,14,02,46,1.60
2006,11,14,02,47,1.60
2006,11,14,02,48,1.60
2006,11,14,02,49,1.50
2006,11,14,02,50,1.50
2006,11,14,02,51,1.50
2006,11,14,02,52,1.50
2006,11,14,02,53,1.50
2006,11,14,02,54,1.50
2006,11,14,02,55,1.40
2006,11,14,02,56,1.40
2006,11,14,02,57,1.40
2006,11,14,02,58,1.40
2006,11,14,02,59,1.40
2006,11,14,03,00,1.40
2006,11,14,03,01,1.40
2006,11,14,03,02,1.40
2006,11,14,03,03,1.50
2006,11,14,03,04,1.50
2006,11,14,03,05,1.50
2006,11,14,03,06,1.50
2006,11,14,03,07,1.50
2006,11,14,03,08,1.50
2006,11,14,03,09,1.50
2006,11,14,03,10,1.60
2006,11,14,03,11,1.60
2006,11,14,03,12,1.60
2006,11,14,03,13,1.60
2006,11,14,03,14,1.60
2006,11,14,03,15,1.60
2006,11,14,03,16,1.60
2006,11,14,03,17,1.60
2006,11,14,03,18,1.60
2006,11,14,03,19,1.60
2006,11,14,03,20,1.50
2006,11,14,03,21,1.50
2006,11,14,03,22,1.50
2006,11,14,03,23,1.50
2006,11,14,03,24,1.50
2006,11,14,03,25,1.50
2006,11,14,03,26,1.40
2006,11,14,03,27,1.40
2006,11,14,03,28,1.50
2006,11,14,03,29,1.50
2006,11,14,03,30,1.50
2006,11,14,03,31,1.50
2006,11,14,03,32,1.50
2006,11,14,03,33,1.50
2006,11,14,03,34,1.50
2006,11,14,03,35,1.50
2006,11,14,03,36,1.50
2006,11,14,03,37,1.50
2006,11,14,03,38,1.50
2006,11,14,03,39,1.50
2006,11,14,03,40,1.50
2006,11,14,03,41,1.50
2006,11,14,03,42,1.50
2006,11,14,03,43,1.50
2006,11,14,03,44,1.50
2006,11,14,03,45,1.50
2006,11,14,03,46,1.50
2006,11,14,03,47,1.50
2006,11,14,03,48,1.50
2006,11,14,03,49,1.50
2006,11,14,03,50,1.50
2006,11,14,03,51,1.60
2006,11,14,03,52,1.50
2006,11,14,03,53,1.50
2006,11,14,03,54,1.50
2006,11,14,03,55,1.50
2006,11,14,03,56,1.50
2006,11,14,03,57,1.50
2006,11,14,03,58,1.40
2006,11,14,03,59,1.40
2006,11,14,04,00,1.40
2006,11,14,04,01,1.40
2006,11,14,04,02,1.40
2006,11,14,04,03,1.40
2006,11,14,04,04,1.40
2006,11,14,04,05,1.40
2006,11,14,04,06,1.40
2006,11,14,04,07,1.40
2006,11,14,04,08,1.40
2006,11,14,04,09,1.40
2006,11,14,04,10,1.40
2006,11,14,04,11,1.40
2006,11,14,04,12,1.40
2006,11,14,04,13,1.40
2006,11,14,04,14,1.40
2006,11,14,04,15,1.40
2006,11,14,04,16,1.40
2006,11,14,04,17,1.40
2006,11,14,04,18,1.40
2006,11,14,04,19,1.40
2006,11,14,04,20,1.40
2006,11,14,04,21,1.40
2006,11,14,04,22,1.40
2006,11,14,04,23,1.40
2006,11,14,04,24,1.40
2006,11,14,04,25,1.40
2006,11,14,04,26,1.40
2006,11,14,04,27,1.50
2006,11,14,04,28,1.50
2006,11,14,04,29,1.50
2006,11,14,04,30,1.50
2006,11,14,04,31,1.60
2006,11,14,04,32,1.60
2006,11,14,04,33,1.60
2006,11,14,04,34,1.60
2006,11,14,04,35,1.70
2006,11,14,04,36,1.70
2006,11,14,04,37,1.70
2006,11,14,04,38,1.70
2006,11,14,04,39,1.70
2006,11,14,04,40,1.80
2006,11,14,04,41,1.80
2006,11,14,04,42,1.80
2006,11,14,04,43,1.80
2006,11,14,04,44,1.80
2006,11,14,04,45,1.80
2006,11,14,04,46,1.80
2006,11,14,04,47,1.80
2006,11,14,04,48,1.80
2006,11,14,04,49,1.80
2006,11,14,04,50,1.80
2006,11,14,04,51,1.80
2006,11,14,04,52,1.80
2006,11,14,04,53,1.80
2006,11,14,04,54,1.80
2006,11,14,04,55,1.80
2006,11,14,04,56,1.80
2006,11,14,04,57,1.80
2006,11,14,04,58,1.70
2006,11,14,04,59,1.70
2006,11,14,05,00,1.70
2006,11,14,05,01,1.70
2006,11,14,05,02,1.70
2006,11,14,05,03,1.60
2006,11,14,05,04,1.60
2006,11,14,05,05,1.60
2006,11,14,05,06,1.60
2006,11,14,05,07,1.60
2006,11,14,05,08,1.60
2006,11,14,05,09,1.50
2006,11,14,05,10,1.50
2006,11,14,05,11,1.50
2006,11,14,05,12,1.50
2006,11,14,05,13,1.50
2006,11,14,05,14,1.50
2006,11,14,05,15,1.50
2006,11,14,05,16,1.50
2006,11,14,05,17,1.50
2006,11,14,05,18,1.60
2006,11,14,05,19,1.60
2006,11,14,05,20,1.60
2006,11,14,05,21,1.60
2006,11,14,05,22,1.60
2006,11,14,05,23,1.70
2006,11,14,05,24,1.70
2006,11,14,05,25,1.70
2006,11,14,05,26,1.80
2006,11,14,05,27,1.80
2006,11,14,05,28,1.80
2006,11,14,05,29,1.80
2006,11,14,05,30,1.80
2006,11,14,05,31,1.80
2006,11,14,05,32,1.90
2006,11,14,05,33,1.90
2006,11,14,05,34,1.90
2006,11,14,05,35,2.00
2006,11,14,05,36,2.00
2006,11,14,05,37,2.00
2006,11,14,05,38,2.10
2006,11,14,05,39,2.10
2006,11,14,05,40,2.20
2006,11,14,05,41,2.20
2006,11,14,05,42,2.20
2006,11,14,05,43,2.30
2006,11,14,05,44,2.40
2006,11,14,05,45,2.40
2006,11,14,05,46,2.50
2006,11,14,05,47,2.60
2006,11,14,05,48,2.70
2006,11,14,05,49,2.70
2006,11,14,05,50,2.80
2006,11,14,05,51,2.80
2006,11,14,05,52,2.90
2006,11,14,05,53,3.00
2006,11,14,05,54,3.10
2006,11,14,05,55,3.10
2006,11,14,05,56,3.20
2006,11,14,05,57,3.20
2006,11,14,05,58,3.30
2006,11,14,05,59,3.30
2006,11,14,06,00,3.30
2006,11,14,06,01,3.30
2006,11,14,06,02,3.30
2006,11,14,06,03,3.40
2006,11,14,06,04,3.40
2006,11,14,06,05,3.40
2006,11,14,06,06,3.40
2006,11,14,06,07,3.40
2006,11,14,06,08,3.40
2006,11,14,06,09,3.40
2006,11,14,06,10,3.40
2006,11,14,06,11,3.40
2006,11,14,06,12,3.40
2006,11,14,06,13,3.30
2006,11,14,06,14,3.30
2006,11,14,06,15,3.30
2006,11,14,06,16,3.30
2006,11,14,06,17,3.30
2006,11,14,06,18,3.30
2006,11,14,06,19,3.30
2006,11,14,06,20,3.30
2006,11,14,06,21,3.30
2006,11,14,06,22,3.30
2006,11,14,06,23,3.30
2006,11,14,06,24,3.30
2006,11,14,06,25,3.30
2006,11,14,06,26,3.30
2006,11,14,06,27,3.30
2006,11,14,06,28,3.30
2006,11,14,06,29,3.30
2006,11,14,06,30,3.40
2006,11,14,06,31,3.40
2006,11,14,06,32,3.40
2006,11,14,06,33,3.40
2006,11,14,06,34,3.50
2006,11,14,06,35,3.50
2006,11,14,06,36,3.50
2006,11,14,06,37,3.50
2006,11,14,06,38,3.60
2006,11,14,06,39,3.60
2006,11,14,06,40,3.60
2006,11,14,06,41,3.70
2006,11,14,06,42,3.80
2006,11,14,06,43,3.80
2006,11,14,06,44,3.80
2006,11,14,06,45,3.90
2006,11,14,06,46,3.90
2006,11,14,06,47,4.00
2006,11,14,06,48,4.00
2006,11,14,06,49,4.10
2006,11,14,06,50,4.20
2006,11,14,06,51,4.20
2006,11,14,06,52,4.30
2006,11,14,06,53,4.40
2006,11,14,06,54,4.40
2006,11,14,06,55,4.50
2006,11,14,06,56,4.60
2006,11,14,06,57,4.60
2006,11,14,06,58,4.70
2006,11,14,06,59,4.80
2006,11,14,07,00,4.80
2006,11,14,07,01,4.90
2006,11,14,07,02,4.90
2006,11,14,07,03,5.10
2006,11,14,07,04,5.10
2006,11,14,07,05,5.10
2006,11,14,07,06,5.10
2006,11,14,07,07,5.10
2006,11,14,07,08,5.10
2006,11,14,07,09,5.10
2006,11,14,07,10,5.10
2006,11,14,07,11,5.20
2006,11,14,07,12,5.20
2006,11,14,07,13,5.20
2006,11,14,07,14,5.20
2006,11,14,07,15,5.20
2006,11,14,07,16,5.30
2006,11,14,07,17,5.30
2006,11,14,07,18,5.30
2006,11,14,07,19,5.30
2006,11,14,07,20,5.20
2006,11,14,07,21,5.20
2006,11,14,07,22,5.20
2006,11,14,07,23,5.20
2006,11,14,07,24,5.10
2006,11,14,07,25,5.10
2006,11,14,07,26,5.10
2006,11,14,07,27,5.10
2006,11,14,07,28,5.10
2006,11,14,07,29,5.10
2006,11,14,07,30,5.10
2006,11,14,07,31,5.10
2006,11,14,07,32,5.10
2006,11,14,07,33,5.10
2006,11,14,07,34,5.10
2006,11,14,07,35,5.10
2006,11,14,07,36,5.10
2006,11,14,07,37,5.10
2006,11,14,07,38,5.10
2006,11,14,07,39,5.10
2006,11,14,07,40,5.10
2006,11,14,07,41,5.10
2006,11,14,07,42,5.10
2006,11,14,07,43,5.10
2006,11,14,07,44,5.10
2006,11,14,07,45,5.10
2006,11,14,07,46,5.10
2006,11,14,07,47,5.10
2006,11,14,07,48,5.10
2006,11,14,07,49,5.10
2006,11,14,07,50,5.10
2006,11,14,07,51,5.10
2006,11,14,07,52,5.10
2006,11,14,07,53,5.10
2006,11,14,07,54,5.10
2006,11,14,07,55,5.10
2006,11,14,07,56,5.10
2006,11,14,07,57,5.10
2006,11,14,07,58,5.10
2006,11,14,07,59,5.10
2006,11,14,08,00,5.10
2006,11,14,08,01,5.10
2006,11,14,08,02,5.10
2006,11,14,08,03,5.10
2006,11,14,08,04,5.10
2006,11,14,08,05,5.10
2006,11,14,08,06,5.10
2006,11,14,08,07,5.10
2006,11,14,08,08,5.10
2006,11,14,08,09,5.10
2006,11,14,08,10,5.10
2006,11,14,08,11,5.10
2006,11,14,08,12,5.10
2006,11,14,08,13,5.10
2006,11,14,08,14,5.10
2006,11,14,08,15,5.10
2006,11,14,08,16,5.10
2006,11,14,08,17,5.20
2006,11,14,08,18,5.20
2006,11,14,08,19,5.20
2006,11,14,08,20,5.20
2006,11,14,08,21,5.20
2006,11,14,08,22,5.20
2006,11,14,08,23,5.30
2006,11,14,08,24,5.30
2006,11,14,08,25,5.30
2006,11,14,08,26,5.30
2006,11,14,08,27,5.30
2006,11,14,08,28,5.30
2006,11,14,08,29,5.30
2006,11,14,08,30,5.40
2006,11,14,08,31,5.40
2006,11,14,08,32,5.40
2006,11,14,08,33,5.40
2006,11,14,08,34,5.40
2006,11,14,08,35,5.40
2006,11,14,08,36,5.40
2006,11,14,08,37,5.50
2006,11,14,08,38,5.50
2006,11,14,08,39,5.50
2006,11,14,08,40,5.50
2006,11,14,08,41,5.50
2006,11,14,08,42,5.60
2006,11,14,08,43,5.60
2006,11,14,08,44,5.60
2006,11,14,08,45,5.70
2006,11,14,08,46,5.70
2006,11,14,08,47,5.70
2006,11,14,08,48,5.70
2006,11,14,08,49,5.70
2006,11,14,08,50,5.70
2006,11,14,08,51,5.70
2006,11,14,08,52,5.60
2006,11,14,08,53,5.60
2006,11,14,08,54,5.60
2006,11,14,08,55,5.50
2006,11,14,08,56,5.50
2006,11,14,08,57,5.50
2006,11,14,08,58,5.50
2006,11,14,08,59,5.40
2006,11,14,09,00,5.40
2006,11,14,09,01,5.40
2006,11,14,09,02,5.40
2006,11,14,09,03,5.30
2006,11,14,09,04,5.30
2006,11,14,09,05,5.30
2006,11,14,09,06,5.30
2006,11,14,09,07,5.30
2006,11,14,09,08,5.30
2006,11,14,09,09,5.30
2006,11,14,09,10,5.30
2006,11,14,09,11,5.30
2006,11,14,09,12,5.30
2006,11,14,09,13,5.30
2006,11,14,09,14,5.30
2006,11,14,09,15,5.30
2006,11,14,09,16,5.30
2006,11,14,09,17,5.30
2006,11,14,09,18,5.30
2006,11,14,09,19,5.30
2006,11,14,09,20,5.30
2006,11,14,09,21,5.30
2006,11,14,09,22,5.30
2006,11,14,09,23,5.30
2006,11,14,09,24,5.30
2006,11,14,09,25,5.30
2006,11,14,09,26,5.30
2006,11,14,09,27,5.30
2006,11,14,09,28,5.30
2006,11,14,09,29,5.40
2006,11,14,09,30,5.40
2006,11,14,09,31,5.40
2006,11,14,09,32,5.50
2006,11,14,09,33,5.50
2006,11,14,09,34,5.50
2006,11,14,09,35,5.50
2006,11,14,09,36,5.60
2006,11,14,09,37,5.60
2006,11,14,09,38,5.60
2006,11,14,09,39,5.70
2006,11,14,09,40,5.70
2006,11,14,09,41,5.70
2006,11,14,09,42,5.70
2006,11,14,09,43,5.70
2006,11,14,09,44,5.70
2006,11,14,09,45,5.80
2006,11,14,09,46,5.80
2006,11,14,09,47,5.80
2006,11,14,09,48,5.90
2006,11,14,09,49,6.00
2006,11,14,09,50,6.00
2006,11,14,09,51,6.00
2006,11,14,09,52,6.10
2006,11,14,09,53,6.10
2006,11,14,09,54,6.20
2006,11,14,09,55,6.20
2006,11,14,09,56,6.20
2006,11,14,09,57,6.20
2006,11,14,09,58,6.20
2006,11,14,09,59,6.20
2006,11,14,10,00,6.20
2006,11,14,10,01,6.30
2006,11,14,10,02,6.30
2006,11,14,10,03,6.30
2006,11,14,10,04,6.30
2006,11,14,10,05,6.30
2006,11,14,10,06,6.40
2006,11,14,10,07,6.40
2006,11,14,10,08,6.40
2006,11,14,10,09,6.40
2006,11,14,10,10,6.40
2006,11,14,10,11,6.40
2006,11,14,10,12,6.40
2006,11,14,10,13,6.40
2006,11,14,10,14,6.50
2006,11,14,10,15,6.60
2006,11,14,10,16,6.60
2006,11,14,10,17,6.60
2006,11,14,10,18,6.60
2006,11,14,10,19,6.60
2006,11,14,10,20,6.60
2006,11,14,10,21,6.60
2006,11,14,10,22,6.60
2006,11,14,10,23,6.60
2006,11,14,10,24,6.70
2006,11,14,10,25,6.70
2006,11,14,10,26,6.70
2006,11,14,10,27,6.70
2006,11,14,10,28,6.70
2006,11,14,10,29,6.80
2006,11,14,10,30,6.80
2006,11,14,10,31,6.80
2006,11,14,10,32,6.80
2006,11,14,10,33,6.80
2006,11,14,10,34,6.80
2006,11,14,10,35,6.80
2006,11,14,10,36,6.80
2006,11,14,10,37,6.80
2006,11,14,10,38,6.80
2006,11,14,10,39,6.90
2006,11,14,10,40,6.80
2006,11,14,10,41,6.80
2006,11,14,10,42,6.80
2006,11,14,10,43,6.80
2006,11,14,10,44,6.80
2006,11,14,10,45,6.80
2006,11,14,10,46,6.80
2006,11,14,10,47,6.80
2006,11,14,10,48,6.80
2006,11,14,10,49,6.80
2006,11,14,10,50,6.90
2006,11,14,10,51,6.90
2006,11,14,10,52,6.90
2006,11,14,10,53,6.80
2006,11,14,10,54,6.80
2006,11,14,10,55,6.80
2006,11,14,10,56,6.80
2006,11,14,10,57,6.80
2006,11,14,10,58,6.80
2006,11,14,10,59,6.80
2006,11,14,11,00,6.80
2006,11,14,11,01,6.80
2006,11,14,11,02,6.80
2006,11,14,11,03,6.80
2006,11,14,11,04,6.80
2006,11,14,11,05,6.80
2006,11,14,11,06,6.70
2006,11,14,11,07,6.70
2006,11,14,11,08,6.60
2006,11,14,11,09,6.60
2006,11,14,11,10,6.60
2006,11,14,11,11,6.60
2006,11,14,11,12,6.60
2006,11,14,11,13,6.60
2006,11,14,11,14,6.60
2006,11,14,11,15,6.60
2006,11,14,11,16,6.60
2006,11,14,11,17,6.60
2006,11,14,11,18,6.60
2006,11,14,11,19,6.60
2006,11,14,11,20,6.60
2006,11,14,11,21,6.60
2006,11,14,11,22,6.60
2006,11,14,11,23,6.60
2006,11,14,11,24,6.60
2006,11,14,11,25,6.60
2006,11,14,11,26,6.60
2006,11,14,11,27,6.60
2006,11,14,11,28,6.60
2006,11,14,11,29,6.60
2006,11,14,11,30,6.60
2006,11,14,11,31,6.70
2006,11,14,11,32,6.70
2006,11,14,11,33,6.70
2006,11,14,11,34,6.70
2006,11,14,11,35,6.80
2006,11,14,11,36,6.80
2006,11,14,11,37,6.80
2006,11,14,11,38,6.80
2006,11,14,11,39,6.80
2006,11,14,11,40,6.80
2006,11,14,11,41,6.80
2006,11,14,11,42,6.80
2006,11,14,11,43,6.80
2006,11,14,11,44,6.80
2006,11,14,11,45,6.90
2006,11,14,11,46,6.90
2006,11,14,11,47,6.90
2006,11,14,11,48,6.90
2006,11,14,11,49,6.90
2006,11,14,11,50,6.90
2006,11,14,11,51,6.90
2006,11,14,11,52,7.00
2006,11,14,11,53,7.00
2006,11,14,11,54,7.00
2006,11,14,11,55,7.00
2006,11,14,11,56,7.00
2006,11,14,11,57,7.00
2006,11,14,11,58,7.00
2006,11,14,11,59,7.10
2006,11,14,12,00,7.10
2006,11,14,12,01,7.10
2006,11,14,12,02,7.10
2006,11,14,12,03,7.10
2006,11,14,12,04,7.20
2006,11,14,12,05,7.20
2006,11,14,12,06,7.20
2006,11,14,12,07,7.20
2006,11,14,12,08,7.20
2006,11,14,12,09,7.20
2006,11,14,12,10,7.20
2006,11,14,12,11,7.20
2006,11,14,12,12,7.20
2006,11,14,12,13,7.20
2006,11,14,12,14,7.30
2006,11,14,12,15,7.30
2006,11,14,12,16,7.30
2006,11,14,12,17,7.30
2006,11,14,12,18,7.30
2006,11,14,12,19,7.30
2006,11,14,12,20,7.30
2006,11,14,12,21,7.30
2006,11,14,12,22,7.30
2006,11,14,12,23,7.30
2006,11,14,12,24,7.30
2006,11,14,12,25,7.30
2006,11,14,12,26,7.30
2006,11,14,12,27,7.30
2006,11,14,12,28,7.30
2006,11,14,12,29,7.30
2006,11,14,12,30,7.30
2006,11,14,12,31,7.30
2006,11,14,12,32,7.30
2006,11,14,12,33,7.20
2006,11,14,12,34,7.20
2006,11,14,12,35,7.20
2006,11,14,12,36,7.20
2006,11,14,12,37,7.20
2006,11,14,12,38,7.20
2006,11,14,12,39,7.20
2006,11,14,12,40,7.20
2006,11,14,12,41,7.10
2006,11,14,12,42,7.10
2006,11,14,12,43,7.20
2006,11,14,12,44,7.20
2006,11,14,12,45,7.10
2006,11,14,12,46,7.10
2006,11,14,12,47,7.20
2006,11,14,12,48,7.10
2006,11,14,12,49,7.10
2006,11,14,12,50,7.10
2006,11,14,12,51,7.10
2006,11,14,12,52,7.10
2006,11,14,12,53,7.10
2006,11,14,12,54,7.10
2006,11,14,12,55,7.10
2006,11,14,12,56,7.00
2006,11,14,12,57,7.00
2006,11,14,12,58,7.00
2006,11,14,12,59,6.90
2006,11,14,13,00,6.90
2006,11,14,13,01,6.90
2006,11,14,13,02,6.80
2006,11,14,13,03,6.80
2006,11,14,13,04,6.80
2006,11,14,13,05,6.80
2006,11,14,13,06,6.80
2006,11,14,13,07,6.80
2006,11,14,13,08,6.80
2006,11,14,13,09,6.80
2006,11,14,13,10,6.80
2006,11,14,13,11,6.80
2006,11,14,13,12,6.70
2006,11,14,13,13,6.70
2006,11,14,13,14,6.70
2006,11,14,13,15,6.70
2006,11,14,13,16,6.70
2006,11,14,13,17,6.70
2006,11,14,13,18,6.70
2006,11,14,13,19,6.70
2006,11,14,13,20,6.70
2006,11,14,13,21,6.60
2006,11,14,13,22,6.60
2006,11,14,13,23,6.60
2006,11,14,13,24,6.60
2006,11,14,13,25,6.60
2006,11,14,13,26,6.60
2006,11,14,13,27,6.60
2006,11,14,13,28,6.60
2006,11,14,13,29,6.70
2006,11,14,13,30,6.70
2006,11,14,13,31,6.70
2006,11,14,13,32,6.70
2006,11,14,13,33,6.70
2006,11,14,13,34,6.70
2006,11,14,13,35,6.70
2006,11,14,13,36,6.70
2006,11,14,13,37,6.70
2006,11,14,13,38,6.70
2006,11,14,13,39,6.70
2006,11,14,13,40,6.70
2006,11,14,13,41,6.70
2006,11,14,13,42,6.70
2006,11,14,13,43,6.70
2006,11,14,13,44,6.70
2006,11,14,13,45,6.70
2006,11,14,13,46,6.70
2006,11,14,13,47,6.70
2006,11,14,13,48,6.70
2006,11,14,13,49,6.70
2006,11,14,13,50,6.80
2006,11,14,13,51,6.80
2006,11,14,13,52,6.80
2006,11,14,13,53,6.80
2006,11,14,13,54,6.80
2006,11,14,13,55,6.80
2006,11,14,13,56,6.80
2006,11,14,13,57,6.70
2006,11,14,13,58,6.70
2006,11,14,13,59,6.70
2006,11,14,14,00,6.70
2006,11,14,14,01,6.70
2006,11,14,14,02,6.70
2006,11,14,14,03,6.70
2006,11,14,14,04,6.70
2006,11,14,14,05,6.70
2006,11,14,14,06,6.70
2006,11,14,14,07,6.70
2006,11,14,14,08,6.70
2006,11,14,14,09,6.80
2006,11,14,14,10,6.80
2006,11,14,14,11,6.80
2006,11,14,14,12,6.80
2006,11,14,14,13,6.80
2006,11,14,14,14,6.80
2006,11,14,14,15,6.70
2006,11,14,14,16,6.80
2006,11,14,14,17,6.80
2006,11,14,14,18,6.80
2006,11,14,14,19,6.80
2006,11,14,14,20,6.80
2006,11,14,14,21,6.80
2006,11,14,14,22,6.80
2006,11,14,14,23,6.80
2006,11,14,14,24,6.80
2006,11,14,14,25,6.80
2006,11,14,14,26,6.80
2006,11,14,14,27,6.80
2006,11,14,14,28,6.80
2006,11,14,14,29,6.80
2006,11,14,14,30,6.80
2006,11,14,14,31,6.80
2006,11,14,14,32,6.80
2006,11,14,14,33,6.80
2006,11,14,14,34,6.80
2006,11,14,14,35,6.80
2006,11,14,14,36,6.80
2006,11,14,14,37,6.80
2006,11,14,14,38,6.80
2006,11,14,14,39,6.80
2006,11,14,14,40,6.90
2006,11,14,14,41,6.90
2006,11,14,14,42,6.90
2006,11,14,14,43,6.90
2006,11,14,14,44,6.90
2006,11,14,14,45,6.90
2006,11,14,14,46,7.00
2006,11,14,14,47,7.00
2006,11,14,14,48,7.00
2006,11,14,14,49,7.00
2006,11,14,14,50,7.00
2006,11,14,14,51,7.00
2006,11,14,14,52,7.10
2006,11,14,14,53,7.10
2006,11,14,14,54,7.10
2006,11,14,14,55,7.10
2006,11,14,14,56,7.10
2006,11,14,14,57,7.10
2006,11,14,14,58,7.20
2006,11,14,14,59,7.20
2006,11,14,15,00,7.20
2006,11,14,15,01,7.20
2006,11,14,15,02,7.20
2006,11,14,15,03,7.20
2006,11,14,15,04,7.30
2006,11,14,15,05,7.30
2006,11,14,15,06,7.30
2006,11,14,15,07,7.30
2006,11,14,15,08,7.30
2006,11,14,15,09,7.30
2006,11,14,15,10,7.30
2006,11,14,15,11,7.30
2006,11,14,15,12,7.30
2006,11,14,15,13,7.30
2006,11,14,15,14,7.30
2006,11,14,15,15,7.30
2006,11,14,15,16,7.30
2006,11,14,15,17,7.30
2006,11,14,15,18,7.30
2006,11,14,15,19,7.30
2006,11,14,15,20,7.30
2006,11,14,15,21,7.30
2006,11,14,15,22,7.30
2006,11,14,15,23,7.30
2006,11,14,15,24,7.30
2006,11,14,15,25,7.30
2006,11,14,15,26,7.30
2006,11,14,15,27,7.30
2006,11,14,15,28,7.30
2006,11,14,15,29,7.30
2006,11,14,15,30,7.30
2006,11,14,15,31,7.30
2006,11,14,15,32,7.30
2006,11,14,15,33,7.30
2006,11,14,15,34,7.30
2006,11,14,15,35,7.30
2006,11,14,15,36,7.30
2006,11,14,15,37,7.30
2006,11,14,15,38,7.30
2006,11,14,15,39,7.30
2006,11,14,15,40,7.30
2006,11,14,15,41,7.30
2006,11,14,15,42,7.30
2006,11,14,15,43,7.30
2006,11,14,15,44,7.30
2006,11,14,15,45,7.30
2006,11,14,15,46,7.30
2006,11,14,15,47,7.30
2006,11,14,15,48,7.30
2006,11,14,15,49,7.30
2006,11,14,15,50,7.30
2006,11,14,15,51,7.30
2006,11,14,15,52,7.30
2006,11,14,15,53,7.30
2006,11,14,15,54,7.30
2006,11,14,15,55,7.30
2006,11,14,15,56,7.30
2006,11,14,15,57,7.30
2006,11,14,15,58,7.30
2006,11,14,15,59,7.30
2006,11,14,16,00,7.30
2006,11,14,16,01,7.30
2006,11,14,16,02,7.30
2006,11,14,16,03,7.30
2006,11,14,16,04,7.30
2006,11,14,16,05,7.30
2006,11,14,16,06,7.30
2006,11,14,16,07,7.30
2006,11,14,16,08,7.30
2006,11,14,16,09,7.30
2006,11,14,16,10,7.30
2006,11,14,16,11,7.30
2006,11,14,16,12,7.30
2006,11,14,16,13,7.30
2006,11,14,16,14,7.30
2006,11,14,16,15,7.30
2006,11,14,16,16,7.30
2006,11,14,16,17,7.30
2006,11,14,16,18,7.30
2006,11,14,16,19,7.30
2006,11,14,16,20,7.30
2006,11,14,16,21,7.20
2006,11,14,16,22,7.20
2006,11,14,16,23,7.20
2006,11,14,16,24,7.20
2006,11,14,16,25,7.20
2006,11,14,16,26,7.20
2006,11,14,16,27,7.20
2006,11,14,16,28,7.20
2006,11,14,16,29,7.20
2006,11,14,16,30,7.10
2006,11,14,16,31,7.10
2006,11,14,16,32,7.10
2006,11,14,16,33,7.10
2006,11,14,16,34,7.10
2006,11,14,16,35,7.10
2006,11,14,16,36,7.00
2006,11,14,16,37,7.00
2006,11,14,16,38,7.00
2006,11,14,16,39,7.00
2006,11,14,16,40,7.00
2006,11,14,16,41,7.00
2006,11,14,16,42,7.00
2006,11,14,16,43,7.00
2006,11,14,16,44,7.00
2006,11,14,16,45,7.00
2006,11,14,16,46,7.00
2006,11,14,16,47,6.90
2006,11,14,16,48,6.90
2006,11,14,16,49,7.00
2006,11,14,16,50,7.00
2006,11,14,16,51,7.00
2006,11,14,16,52,7.00
2006,11,14,16,53,6.90
2006,11,14,16,54,6.90
2006,11,14,16,55,6.90
2006,11,14,16,56,6.90
2006,11,14,16,57,6.90
2006,11,14,16,58,6.90
2006,11,14,16,59,6.90
2006,11,14,17,00,6.90
2006,11,14,17,01,6.90
2006,11,14,17,02,6.90
2006,11,14,17,03,6.80
2006,11,14,17,04,6.80
2006,11,14,17,05,6.80
2006,11,14,17,06,6.80
2006,11,14,17,07,6.80
2006,11,14,17,08,6.80
2006,11,14,17,09,6.80
2006,11,14,17,10,6.80
2006,11,14,17,11,6.80
2006,11,14,17,12,6.80
2006,11,14,17,13,6.80
2006,11,14,17,14,6.80
2006,11,14,17,15,6.80
2006,11,14,17,16,6.80
2006,11,14,17,17,6.70
2006,11,14,17,18,6.70
2006,11,14,17,19,6.70
2006,11,14,17,20,6.70
2006,11,14,17,21,6.70
2006,11,14,17,22,6.60
2006,11,14,17,23,6.60
2006,11,14,17,24,6.60
2006,11,14,17,25,6.60
2006,11,14,17,26,6.60
2006,11,14,17,27,6.60
2006,11,14,17,28,6.60
2006,11,14,17,29,6.60
2006,11,14,17,30,6.60
2006,11,14,17,31,6.60
2006,11,14,17,32,6.60
2006,11,14,17,33,6.60
2006,11,14,17,34,6.60
2006,11,14,17,35,6.60
2006,11,14,17,36,6.60
2006,11,14,17,37,6.50
2006,11,14,17,38,6.40
2006,11,14,17,39,6.40
2006,11,14,17,40,6.40
2006,11,14,17,41,6.40
2006,11,14,17,42,6.40
2006,11,14,17,43,6.40
2006,11,14,17,44,6.40
2006,11,14,17,45,6.40
2006,11,14,17,46,6.40
2006,11,14,17,47,6.40
2006,11,14,17,48,6.30
2006,11,14,17,49,6.30
2006,11,14,17,50,6.30
2006,11,14,17,51,6.30
2006,11,14,17,52,6.20
2006,11,14,17,53,6.20
2006,11,14,17,54,6.20
2006,11,14,17,55,6.20
2006,11,14,17,56,6.20
2006,11,14,17,57,6.20
2006,11,14,17,58,6.20
2006,11,14,17,59,6.20
2006,11,14,18,00,6.20
2006,11,14,18,01,6.20
2006,11,14,18,02,6.20
2006,11,14,18,03,6.20
2006,11,14,18,04,6.20
2006,11,14,18,05,6.20
2006,11,14,18,06,6.20